Flag for Norway Weather past 2 weeks in Gjøvik, Norway

Now
34 °F

Chilly.


Feels Like: 29 °F
Forecast: 28 / 39 °F
Wind: 6 mph from Southeast

Location: Lillehammer-Saetherengen

Current Time: Mar 1, 2015 at 4:08:02 PM

Latest Report: Mar 1, 2015 at 3:00 PM


Visibility: N/A

Pressure: 29.00 "Hg

Humidity: 88%

Dew point: 31 °F

Location of GjøvikLocation

Historic Weather in Gjøvik — Graph

°F

Gjøvik temperature yesterday

Maximum temperature yesterday: 37 °F (at 4:00 PM)
Minimum temperature yesterday: 25 °F (at 7:00 AM)
Average temperature yesterday: 32 °F

Past Weeks' High & Low Weather Summary

 TemperatureHumidityPressure
High49 °F (Feb 19, 2:00 PM)98% (Feb 25, 7:00 AM)30.55 "Hg (Feb 25, 7:00 AM)
Low17 °F (Feb 22, 10:00 PM)41% (Feb 20, 2:00 PM)28.94 "Hg (Feb 23, 12:00 PM)
Average32 °F85%29.65 "Hg
* Reported Feb 14 2:00 PM — Mar 1 2:00 PM, Gjøvik, Weather by CustomWeather, © 2015

Note: Actual official high and low records may vary slightly from our data, if they occured in-between our weather recording intervals... More about our weather records

Advertising

Gjøvik weather history for previous 24 hours

 ConditionsComfort  
Time TempWeatherWind HumidityBarometerVisibility
2:00 PM
Sun, Mar 1
34 °FChilly.6 mph89%29.03 "HgN/A
1:00 PM34 °FChilly.6 mph87%29.06 "HgN/A
12:00 PM34 °FChilly.6 mph87%29.09 "HgN/A
11:00 AM34 °FChilly.7 mph88%29.09 "HgN/A
10:00 AM34 °FChilly.6 mph89%29.09 "HgN/A
9:00 AM34 °FChilly.7 mph89%29.12 "HgN/A
8:00 AM34 °FChilly.7 mph88%29.15 "HgN/A
7:00 AM34 °FChilly.7 mph88%29.18 "HgN/A
6:00 AM35 °FChilly.8 mph89%29.21 "HgN/A
5:00 AM36 °FChilly.7 mph83%29.23 "HgN/A
4:00 AM35 °FChilly.6 mph87%29.26 "HgN/A
3:00 AM36 °FChilly.7 mph88%29.29 "HgN/A
2:00 AM36 °FChilly.7 mph89%29.32 "HgN/A
1:00 AM36 °FChilly.8 mph89%29.32 "HgN/A
12:00 AM36 °FChilly.7 mph89%29.35 "HgN/A
11:00 PM
Sat, Feb 28
36 °FChilly.7 mph90%29.38 "HgN/A
10:00 PM36 °FChilly.6 mph89%29.41 "HgN/A
9:00 PM36 °FChilly.6 mph87%29.44 "HgN/A
8:00 PM36 °FChilly.5 mph87%29.47 "HgN/A
7:00 PM36 °FChilly.6 mph85%29.47 "HgN/A
6:00 PM36 °FChilly.5 mph84%29.50 "HgN/A
5:00 PM36 °FChilly.6 mph83%29.50 "HgN/A
4:00 PM37 °FChilly.7 mph79%29.53 "HgN/A
Weather by CustomWeather, © 2015

See weather overviewHow to use our weather pages